[[{"header":{"parameterUnit":"m.s-1","parameterCategory":1,"la1":30.2991,"la2":30.254,"lo1":-89.0895,"lo2":-89.0444,"dy":0.0017,"dx":0.0017,"nx":28,"ny":28,"refTime":"2023-07-21T09:00:00:Z","depth":0,"parameterNumber":2,"parameterNumberName":"U-component_of_WINDS"},"data":[0,0,0,0,0,0,0,0,0,0,0,0,0,0,0,0,0,0,0,0,0,0,0,0,0,0,0,0,0,0,0,0,0,0,0,0,0,0,0,0,0,0,0,0,0,0,0,0,0,0,0,0,0,0,0,0,0,0,4.336,4.3361,0,4.3437,4.3438,4.3439,4.3396,4.3394,4.3391,4.3389,4.3471,4.3476,4.348,0,0,0,0,0,0,0,0,0,0,0,0,0,4.3178,4.3182,4.336,4.3361,4.3362,4.3437,4.3438,4.3439,4.3396,4.3393,4.3391,4.3388,4.347,4.3475,4.348,0,0,0,0,0,0,0,0,0,0,0,0,0,4.3256,4.3183,4.336,4.3349,4.3349,4.3437,4.3438,4.344,4.3397,4.3393,4.339,4.3387,4.3468,4.3475,4.3481,4.3584,0,0,4.35,4.3503,0,0,0,0,0,0,0,0,4.3252,4.3263,4.335,4.335,4.335,4.3403,4.3404,4.3488,4.3397,4.3379,4.3389,4.3386,4.3452,4.3459,4.3481,4.3588,4.3591,4.3501,4.3504,4.3507,4.3509,0,0,0,0,0,0,0,4.3247,4.326,4.3391,4.3351,4.3351,4.3342,4.3349,4.342,4.3432,4.338,4.3377,4.3387,4.3451,4.3475,4.3482,4.3593,4.35,4.3506,4.351,4.3512,4.379,4.3793,0,0,0,0,0,0,4.3242,4.3255,4.3388,4.3393,4.3292,4.3348,4.3356,4.339,4.3431,4.3435,4.3389,4.3384,4.3466,4.3475,4.3485,4.361,4.3507,4.3513,4.3516,4.3786,4.3791,4.3795,0,0,0,0,0,0,4.3238,4.3254,4.3385,4.3323,4.3339,4.3354,4.3392,4.3393,4.3416,4.3438,4.3441,4.3411,4.3463,4.3476,4.356,4.3612,4.3516,4.3521,4.3782,4.3788,4.3793,4.3859,0,0,0,0,0,0,4.3233,4.3253,4.3291,4.3325,4.3343,4.3458,4.3395,4.3397,4.3427,4.3421,4.3459,4.3463,4.3462,4.3551,4.3566,4.3619,4.3526,4.3778,4.3785,4.3791,4.3853,4.3866,4.3878,0,0,0,0,0,4.3226,4.3307,4.3293,4.331,4.3391,4.3461,4.3471,4.3468,4.3431,4.3471,4.3485,4.3462,4.3604,4.356,4.3577,4.3632,4.3774,4.3783,4.379,4.3847,4.3864,4.3878,0,0,0,0,0,0,4.328,4.3311,4.3296,4.339,4.3423,4.3453,4.3503,4.3486,4.353,4.3523,4.3518,4.3527,4.3614,4.3631,4.3582,4.3735,4.3683,4.3695,4.372,4.3737,4.3749,4.3744,4.3532,0,0,0,0,0,4.3303,4.3356,4.3381,4.3461,4.3478,4.3488,4.3518,4.3513,4.3547,4.3561,4.3581,4.3616,4.3669,4.3704,4.3753,4.3855,4.3863,4.3901,4.3914,4.3924,4.3935,4.3991,4.4009,4.3821,4.3821,4.3821,0,0,4.3351,4.3374,4.3408,4.3473,4.3497,4.3553,4.35,4.3561,4.3603,4.357,4.3651,4.3667,4.3706,4.3799,4.3841,4.3816,4.3989,4.3935,4.3943,4.3948,4.4001,4.4019,4.4035,4.3827,4.3826,4.3825,0,0,4.3466,4.3489,4.3559,4.3585,4.3623,4.3629,4.3646,4.3679,4.3689,4.3769,4.3746,4.3796,4.3886,4.3915,4.3942,4.407,4.405,4.4086,4.4153,4.4208,4.4223,4.4236,4.4282,4.4299,4.4096,4.4097,4.4097,0,4.3521,4.3604,4.3597,4.3661,4.369,4.3663,4.3734,4.376,4.3813,4.3835,4.3806,4.3919,4.3943,4.4043,4.4075,4.4097,4.4117,4.4082,4.4221,4.4234,4.4246,4.4291,4.4308,4.4101,4.41,4.41,4.4099,0,4.367,4.3727,4.378,4.3831,4.3866,4.3933,4.3939,4.3975,4.3967,4.3977,4.406,4.4088,4.4143,4.4166,4.4159,4.4266,4.4249,4.4221,4.4169,4.4268,4.431,4.4327,4.4107,4.4105,4.4104,4.4103,0,0,4.3821,4.3868,4.3888,4.3911,4.3952,4.3997,4.4063,4.4116,4.4149,4.4186,4.4243,4.4321,4.4295,4.4325,4.4321,4.4369,4.447,4.4334,4.4335,4.4359,4.4591,4.4612,4.4632,4.4457,4.446,4.4462,4.4588,0,4.394,4.4056,4.4053,4.4161,4.4215,4.4189,4.4248,4.428,4.429,4.4339,4.4351,4.4406,4.4367,4.4386,4.4432,4.4447,4.4516,4.4438,4.451,4.4513,4.4502,4.4654,4.4677,4.4794,4.4604,4.4607,4.4609,0,4.4094,4.4137,4.425,4.4283,4.4306,4.4358,4.4407,4.4453,4.4489,4.4494,4.4528,4.4517,4.4586,4.4532,4.4627,4.4575,4.4604,4.4616,4.4621,4.4628,4.4567,4.4666,4.4831,4.4849,4.4634,4.4632,4.463,0,4.4195,4.428,4.4359,4.438,4.442,4.4458,4.4477,4.451,4.4542,4.4585,4.4607,4.4658,4.4686,4.4727,4.473,4.469,4.4827,4.4773,4.4834,4.4834,4.4864,4.4862,4.5037,4.4882,4.4882,4.4881,4.4881,0,4.4329,4.4399,4.4405,4.4454,4.4533,4.4529,4.4607,4.4623,4.4652,4.4704,4.4686,4.4735,4.4736,4.4787,4.479,4.487,4.4882,4.4889,4.4889,4.4891,4.489,4.4911,4.4903,4.4886,4.4885,4.4884,4.4883,0,4.4454,4.4461,4.4546,4.4577,4.4587,4.4644,4.4671,4.4718,4.4727,4.4794,4.4809,4.4824,4.4883,4.489,4.4959,4.4961,4.5057,4.5048,4.5045,4.5044,4.5105,4.5099,4.5299,4.5325,4.5153,4.5154,4.5156,0,4.454,4.4593,4.463,4.4664,4.4684,4.4738,4.4771,4.477,4.4805,4.4851,4.4893,4.495,4.4996,4.5092,4.511,4.5163,4.5155,4.5222,4.5163,4.5164,4.5157,4.5154,4.516,4.5233,4.5235,4.5237,4.5238,0,4.4691,4.4691,4.4739,4.4789,4.4829,4.4868,4.4905,4.4933,4.4936,4.4978,4.5037,4.5073,4.5143,4.5201,4.5253,4.5274,4.5258,4.5256,4.5273,4.5276,4.5272,4.5276,4.5077,4.5252,4.525,4.5249,4.5249,4.5248,4.4799,4.4846,4.488,4.4934,4.4961,4.4996,4.5042,4.5057,4.5107,4.5163,4.516,4.5226,4.5262,4.5331,4.5355,4.5408,4.5386,4.5411,4.5417,4.5423,4.543,4.5263,4.5417,4.5417,4.5417,4.5416,4.5416,0,4.495,4.497,4.502,4.5072,4.5115,4.5095,4.5135,4.5172,4.5231,4.5265,4.531,4.538,4.5436,4.5458,4.5513,4.5551,4.5545,4.5565,4.5563,4.5568,4.5446,4.5426,4.5569,4.5569,4.5569,4.5569,4.5569,4.5569,4.5033,4.5112,4.5117,4.5209,4.5229,4.5294,4.5318,4.5351,4.5378,4.5456,4.5502,4.5516,4.5546,4.5603,4.5654,4.5659,4.568,4.5705,4.5707,4.5592,4.5577,4.5562,4.5543,4.5709,4.5709,4.5825,4.5826,4.5827]},{"header":{"parameterUnit":"m.s-1","parameterCategory":1,"la1":30.2991,"la2":30.254,"lo1":-89.0895,"lo2":-89.0444,"dy":0.0017,"dx":0.0017,"nx":28,"ny":28,"refTime":"2023-07-21T09:00:00:Z","depth":0,"parameterNumber":3,"parameterNumberName":"V-component_of_WINDS"},"data":[0,0,0,0,0,0,0,0,0,0,0,0,0,0,0,0,0,0,0,0,0,0,0,0,0,0,0,0,0,0,0,0,0,0,0,0,0,0,0,0,0,0,0,0,0,0,0,0,0,0,0,0,0,0,0,0,0,0,1.0593,1.0593,0,1.0605,1.0605,1.0605,1.0608,1.0608,1.0608,1.0608,1.062,1.062,1.0621,0,0,0,0,0,0,0,0,0,0,0,0,0,1.0571,1.0571,1.0593,1.0593,1.0593,1.0605,1.0605,1.0605,1.0608,1.0608,1.0608,1.0608,1.062,1.062,1.0621,0,0,0,0,0,0,0,0,0,0,0,0,0,1.0582,1.0572,1.0593,1.0596,1.0596,1.0605,1.0605,1.0605,1.0608,1.0608,1.0608,1.0608,1.062,1.062,1.0621,1.0627,0,0,1.0623,1.0623,0,0,0,0,0,0,0,0,1.0581,1.0582,1.0595,1.0596,1.0596,1.0605,1.0602,1.0613,1.0608,1.0604,1.0608,1.0608,1.0615,1.0616,1.0619,1.0628,1.0628,1.0623,1.0623,1.0623,1.0624,0,0,0,0,0,0,0,1.058,1.0582,1.0598,1.0596,1.0596,1.0596,1.0598,1.0604,1.061,1.0604,1.0604,1.0606,1.0615,1.0618,1.0619,1.0629,1.0623,1.0623,1.0624,1.0624,1.0643,1.0643,0,0,0,0,0,0,1.0579,1.0581,1.0597,1.0598,1.0588,1.0597,1.0598,1.0602,1.061,1.0611,1.0606,1.0606,1.0617,1.0618,1.0619,1.0627,1.0623,1.0624,1.0624,1.0642,1.0643,1.0643,0,0,0,0,0,0,1.0579,1.058,1.0597,1.059,1.0592,1.0597,1.0602,1.0603,1.0605,1.0611,1.0612,1.0607,1.0617,1.0618,1.0625,1.0627,1.0624,1.0625,1.0642,1.0642,1.0643,1.0642,0,0,0,0,0,0,1.0578,1.058,1.0583,1.059,1.0592,1.0603,1.0602,1.0603,1.0606,1.0606,1.0613,1.0614,1.0617,1.0624,1.0626,1.0628,1.0625,1.0642,1.0642,1.0643,1.0642,1.0642,1.0642,0,0,0,0,0,1.0577,1.0583,1.0583,1.0585,1.0596,1.0603,1.0604,1.0608,1.0607,1.0609,1.0613,1.0614,1.0627,1.0625,1.0627,1.0629,1.0642,1.0642,1.0643,1.0642,1.0642,1.0642,0,0,0,0,0,0,1.0576,1.0584,1.0584,1.0592,1.0597,1.0603,1.0607,1.0608,1.0613,1.0613,1.0617,1.0618,1.0624,1.0627,1.0625,1.0635,1.0634,1.0635,1.0633,1.0633,1.0634,1.0633,1.0626,0,0,0,0,0,1.0577,1.0582,1.0588,1.0595,1.0597,1.0601,1.0605,1.0607,1.0612,1.0614,1.0618,1.0622,1.0627,1.063,1.0635,1.0642,1.0643,1.0645,1.0645,1.0645,1.0646,1.0649,1.0649,1.0644,1.0644,1.0644,0,0,1.0579,1.0583,1.0587,1.0595,1.0599,1.0603,1.0603,1.0609,1.0612,1.0614,1.0621,1.0624,1.0629,1.0636,1.0639,1.0638,1.0647,1.0646,1.0646,1.0646,1.0649,1.065,1.065,1.0644,1.0644,1.0644,0,0,1.0584,1.0589,1.0594,1.0597,1.0603,1.0606,1.0607,1.0613,1.0615,1.0621,1.0623,1.0627,1.0636,1.0639,1.0642,1.0647,1.0648,1.0649,1.065,1.0653,1.0654,1.0654,1.0656,1.0656,1.0649,1.0649,1.0649,0,1.0586,1.0594,1.0597,1.0602,1.0605,1.0607,1.0612,1.0615,1.0622,1.0624,1.0623,1.0634,1.0637,1.0644,1.0646,1.0648,1.0649,1.0648,1.0653,1.0654,1.0654,1.0656,1.0656,1.0649,1.0649,1.0649,1.0649,0,1.0595,1.06,1.0603,1.061,1.0613,1.0618,1.0622,1.0625,1.0626,1.0629,1.0635,1.0639,1.0645,1.0646,1.0648,1.0653,1.0653,1.0653,1.0652,1.0655,1.0656,1.0657,1.0649,1.0649,1.0649,1.0649,0,0,1.0601,1.0608,1.0609,1.0612,1.0617,1.0621,1.0626,1.0631,1.0633,1.0638,1.0642,1.0648,1.0648,1.0651,1.0653,1.0656,1.0659,1.0655,1.0656,1.0656,1.0664,1.0664,1.0665,1.0659,1.066,1.066,1.0664,0,1.0607,1.0615,1.0618,1.0625,1.0629,1.063,1.0634,1.0638,1.064,1.0644,1.0647,1.0651,1.0651,1.0653,1.0655,1.0658,1.0661,1.0658,1.0663,1.0663,1.0661,1.0666,1.0666,1.0669,1.0664,1.0664,1.0665,0,1.0615,1.0619,1.0627,1.0631,1.0633,1.0637,1.0641,1.0645,1.0649,1.065,1.0653,1.0654,1.0659,1.0657,1.0663,1.0661,1.0663,1.0665,1.0665,1.0665,1.0664,1.0666,1.0671,1.0671,1.0665,1.0665,1.0665,0,1.0618,1.0626,1.0631,1.0633,1.0638,1.0641,1.0643,1.0647,1.0649,1.0653,1.0655,1.0659,1.0661,1.0664,1.0666,1.0665,1.0672,1.0671,1.0673,1.0673,1.0674,1.0674,1.0679,1.0676,1.0676,1.0676,1.0675,0,1.0625,1.0629,1.0632,1.0636,1.064,1.0643,1.0647,1.0649,1.0652,1.0656,1.0657,1.066,1.0663,1.0666,1.0668,1.0672,1.0673,1.0674,1.0674,1.0674,1.0674,1.0675,1.0675,1.0676,1.0676,1.0676,1.0676,0,1.0629,1.0632,1.0637,1.0641,1.0642,1.0646,1.0649,1.0652,1.0654,1.0658,1.0659,1.0662,1.0666,1.0668,1.0673,1.0674,1.0679,1.0679,1.0678,1.0678,1.068,1.0679,1.0686,1.0686,1.0683,1.0683,1.0683,0,1.0633,1.0636,1.0641,1.0643,1.0645,1.0649,1.0651,1.0653,1.0656,1.066,1.0662,1.0666,1.0669,1.0675,1.0677,1.0681,1.0681,1.0683,1.0682,1.0681,1.0681,1.0681,1.0681,1.0684,1.0684,1.0684,1.0684,0,1.0639,1.064,1.0644,1.0647,1.065,1.0653,1.0656,1.0658,1.066,1.0663,1.0667,1.0669,1.0674,1.0677,1.0681,1.0683,1.0684,1.0684,1.0685,1.0684,1.0683,1.0683,1.0678,1.0684,1.0684,1.0684,1.0684,1.0684,1.0644,1.0646,1.0649,1.0653,1.0655,1.0658,1.066,1.0662,1.0666,1.067,1.067,1.0674,1.0677,1.0682,1.0684,1.0687,1.0686,1.0687,1.0688,1.0688,1.0688,1.0682,1.0687,1.0687,1.0687,1.0687,1.0687,0,1.065,1.0652,1.0655,1.0659,1.0661,1.0661,1.0664,1.0666,1.067,1.0672,1.0675,1.0679,1.0682,1.0685,1.0688,1.069,1.069,1.0691,1.069,1.0691,1.0688,1.0687,1.069,1.069,1.069,1.069,1.069,1.069,1.0653,1.0658,1.0658,1.0664,1.0665,1.0669,1.0671,1.0673,1.0675,1.0679,1.0682,1.0683,1.0685,1.0689,1.0692,1.0692,1.0693,1.0694,1.0694,1.0691,1.0691,1.0691,1.069,1.0694,1.0694,1.0697,1.0697,1.0697]}]]